Terminal Aerodrome Forecast
Issued by NWS

Home | Current Version | Previous Version | Text Only | Print | Product List | Glossary On
Versions: 1 2 3 4 5 6 7 8 9 10 11 12 13 14 15 16 17 18
000
FTAK31 PANC 010532
TAFADL
TAF
PADL 010532Z 0106/0206 34012G18KT P6SM -SHRA BKN035 BKN060 BKN110
     FM010730 04012KT P6SM VCSH SCT035 BKN060
     FM012100 VRB05KT P6SM VCSH SCT040 BKN070
     FM020000 23006KT P6SM -SHRA SCT030 OVC050=

USA.gov is the U.S. government's official web portal to all federal, state and local government web resources and services.